E27IHO-13 Weather Reports


Display with metric or nautical units.
time (UTC)temp
F
wind
direction
speed
MPH
gust
MPH
rain 1hr
in
rain 24hr
in
rain mn
in
humidity
%
barometer
mb
20260504160224 82 0 0.0 0.0 0.00 0.00 0.00 80 1012.0
20260504150728 83 0 0.0 0.0 0.00 0.00 0.00 76 1012.0
20260504150206 83 0 0.0 0.0 0.00 0.00 0.00 75 1012.0
20260504140826 83 0 0.0 0.0 0.00 0.00 0.00 76 1011.0
20260504130556 82 0 0.0 0.0 0.00 0.00 0.00 75 1010.0
20260504110625 82 0 0.0 0.0 0.00 0.00 0.00 74 1008.0
20260504100159 84 0 0.0 0.0 0.00 0.00 0.00 69 1008.0
20260504081948 85 0 0.0 0.0 0.00 0.00 0.00 72 1008.0
20260504081426 84 0 0.0 0.0 0.00 0.00 0.00 73 1008.0
20260504081055 84 0 0.0 0.0 0.00 0.00 0.00 75 1008.0
20260504080533 85 0 0.0 0.0 0.00 0.00 0.00 70 1009.0
20260504070109 100 0 0.0 0.0 0.00 0.00 0.00 46 1008.0
20260504060207 98 0 0.0 0.0 0.00 0.00 0.00 48 1009.0
20260504050600 96 0 0.0 0.0 0.00 0.00 0.00 54 1010.0
20260504045516 95 0 0.0 0.0 0.00 0.00 0.00 56 1010.0
20260504044954 96 0 0.0 0.0 0.00 0.00 0.00 54 1010.0
20260504044432 95 0 0.0 0.0 0.00 0.00 0.00 56 1010.0
20260504043849 95 0 0.0 0.0 0.00 0.00 0.00 57 1010.0
20260504043327 96 0 0.0 0.0 0.00 0.00 0.00 55 1010.0
20260504042805 95 0 0.0 0.0 0.00 0.00 0.00 56 1010.0
20260504042243 96 0 0.0 0.0 0.00 0.00 0.00 55 1010.0
20260504041721 97 0 0.0 0.0 0.00 0.00 0.00 52 1010.0
20260504041159 96 0 0.0 0.0 0.00 0.00 0.00 53 1010.0
20260504040637 97 0 0.0 0.0 0.00 0.00 0.00 51 1010.0
20260504040115 97 0 0.0 0.0 0.00 0.00 0.00 53 1011.0
20260504035553 97 0 0.0 0.0 0.00 0.00 0.00 52 1011.0
20260504035031 97 0 0.0 0.0 0.00 0.00 0.00 50 1011.0
20260504034509 97 0 0.0 0.0 0.00 0.00 0.00 50 1011.0
20260504033947 99 0 0.0 0.0 0.00 0.00 0.00 49 1011.0
20260504033425 98 0 0.0 0.0 0.00 0.00 0.00 50 1011.0
20260504032903 97 0 0.0 0.0 0.00 0.00 0.00 51 1011.0
20260504032341 97 0 0.0 0.0 0.00 0.00 0.00 52 1011.0
20260504031819 95 0 0.0 0.0 0.00 0.00 0.00 56 1011.0
20260504031256 97 0 0.0 0.0 0.00 0.00 0.00 51 1011.0
20260504030734 97 0 0.0 0.0 0.00 0.00 0.00 51 1011.0
20260504030212 97 0 0.0 0.0 0.00 0.00 0.00 52 1011.0
20260504025650 95 0 0.0 0.0 0.00 0.00 0.00 54 1011.0
20260504025129 97 0 0.0 0.0 0.00 0.00 0.00 50 1011.0
20260504024606 97 0 0.0 0.0 0.00 0.00 0.00 50 1011.0
20260504024044 95 0 0.0 0.0 0.00 0.00 0.00 56 1011.0
20260504014044 96 0 0.0 0.0 0.00 0.00 0.00 55 1011.0
20260504013522 96 0 0.0 0.0 0.00 0.00 0.00 55 1011.0
20260504013000 95 0 0.0 0.0 0.00 0.00 0.00 58 1011.0
20260504012438 94 0 0.0 0.0 0.00 0.00 0.00 59 1011.0
20260504011916 93 0 0.0 0.0 0.00 0.00 0.00 60 1011.0
20260504011552 94 0 0.0 0.0 0.00 0.00 0.00 58 1011.0
20260504011030 95 0 0.0 0.0 0.00 0.00 0.00 58 1011.0
20260504010508 93 0 0.0 0.0 0.00 0.00 0.00 61 1011.0
20260504005946 93 0 0.0 0.0 0.00 0.00 0.00 62 1011.0
20260504005424 92 0 0.0 0.0 0.00 0.00 0.00 63 1011.0
20260504004903 92 0 0.0 0.0 0.00 0.00 0.00 63 1011.0
20260504004334 91 0 0.0 0.0 0.00 0.00 0.00 64 1011.0
20260504003812 91 0 0.0 0.0 0.00 0.00 0.00 64 1011.0
20260504003250 92 0 0.0 0.0 0.00 0.00 0.00 62 1011.0
20260504002435 93 0 0.0 0.0 0.00 0.00 0.00 62 1010.0
20260504001913 90 0 0.0 0.0 0.00 0.00 0.00 66 1010.0
20260504001351 90 0 0.0 0.0 0.00 0.00 0.00 66 1010.0
20260504001151 90 0 0.0 0.0 0.00 0.00 0.00 66 1010.0
20260504000629 93 0 0.0 0.0 0.00 0.00 0.00 60 1010.0
20260504000454 94 0 0.0 0.0 0.00 0.00 0.00 58 1010.0
20260503235932 91 0 0.0 0.0 0.00 0.00 0.00 63 1010.0
20260503235410 96 0 0.0 0.0 0.00 0.00 0.00 55 1010.0
20260503234848 94 0 0.0 0.0 0.00 0.00 0.00 60 1010.0
20260503234326 89 0 0.0 0.0 0.00 0.00 0.00 67 1010.0
20260503233804 92 0 0.0 0.0 0.00 0.00 0.00 62 1010.0
20260503233243 92 0 0.0 0.0 0.00 0.00 0.00 62 1010.0
20260503232727 90 0 0.0 0.0 0.00 0.00 0.00 66 1010.0
20260503232221 89 0 0.0 0.0 0.00 0.00 0.00 69 1010.0
20260503231639 87 0 0.0 0.0 0.00 0.00 0.00 73 1010.0
20260503231113 87 0 0.0 0.0 0.00 0.00 0.00 73 1010.0
20260503230551 86 0 0.0 0.0 0.00 0.00 0.00 74 1010.0
20260503230029 87 0 0.0 0.0 0.00 0.00 0.00 73 1010.0
20260503225507 86 0 0.0 0.0 0.00 0.00 0.00 74 1010.0
20260503224945 86 0 0.0 0.0 0.00 0.00 0.00 74 1010.0
20260503224423 86 0 0.0 0.0 0.00 0.00 0.00 74 1009.0
20260503223901 86 0 0.0 0.0 0.00 0.00 0.00 74 1009.0
20260503223339 86 0 0.0 0.0 0.00 0.00 0.00 74 1009.0
20260503222817 86 0 0.0 0.0 0.00 0.00 0.00 74 1009.0
20260503222255 86 0 0.0 0.0 0.00 0.00 0.00 74 1009.0
20260503221733 87 0 0.0 0.0 0.00 0.00 0.00 74 1009.0
20260503221211 87 0 0.0 0.0 0.00 0.00 0.00 74 1009.0
20260503220649 86 0 0.0 0.0 0.00 0.00 0.00 74 1009.0
20260503220127 86 0 0.0 0.0 0.00 0.00 0.00 74 1009.0
20260503215605 86 0 0.0 0.0 0.00 0.00 0.00 74 1009.0
20260503215043 87 0 0.0 0.0 0.00 0.00 0.00 74 1009.0
20260503214827 87 0 0.0 0.0 0.00 0.00 0.00 74 1009.0
20260503214305 87 0 0.0 0.0 0.00 0.00 0.00 74 1009.0
20260503213908 87 0 0.0 0.0 0.00 0.00 0.00 74 1009.0
20260503213125 87 0 0.0 0.0 0.00 0.00 0.00 74 1009.0
20260503212603 87 0 0.0 0.0 0.00 0.00 0.00 74 1009.0
20260503212041 87 0 0.0 0.0 0.00 0.00 0.00 74 1009.0
20260503211519 87 0 0.0 0.0 0.00 0.00 0.00 74 1009.0
20260503210957 87 0 0.0 0.0 0.00 0.00 0.00 73 1008.0
20260503210435 87 0 0.0 0.0 0.00 0.00 0.00 73 1008.0
20260503205913 87 0 0.0 0.0 0.00 0.00 0.00 74 1009.0
20260503205325 87 0 0.0 0.0 0.00 0.00 0.00 74 1009.0
20260503204803 86 0 0.0 0.0 0.00 0.00 0.00 74 1009.0
20260503204241 87 0 0.0 0.0 0.00 0.00 0.00 74 1009.0
20260503203719 86 0 0.0 0.0 0.00 0.00 0.00 75 1009.0
20260503203157 86 0 0.0 0.0 0.00 0.00 0.00 75 1009.0
20260503202635 86 0 0.0 0.0 0.00 0.00 0.00 75 1009.0
20260503202113 86 0 0.0 0.0 0.00 0.00 0.00 75 1009.0
20260503201551 86 0 0.0 0.0 0.00 0.00 0.00 75 1009.0
20260503201029 86 0 0.0 0.0 0.00 0.00 0.00 76 1009.0
20260503200507 86 0 0.0 0.0 0.00 0.00 0.00 76 1009.0
20260503195945 86 0 0.0 0.0 0.00 0.00 0.00 75 1009.0
20260503195423 86 0 0.0 0.0 0.00 0.00 0.00 75 1009.0
20260503194901 86 0 0.0 0.0 0.00 0.00 0.00 74 1009.0
20260503194525 86 0 0.0 0.0 0.00 0.00 0.00 75 1009.0
20260503194002 86 0 0.0 0.0 0.00 0.00 0.00 74 1009.0
20260503193440 87 0 0.0 0.0 0.00 0.00 0.00 73 1009.0
20260503192918 87 0 0.0 0.0 0.00 0.00 0.00 72 1009.0
20260503192356 87 0 0.0 0.0 0.00 0.00 0.00 72 1009.0
20260503191834 87 0 0.0 0.0 0.00 0.00 0.00 71 1009.0
20260503191312 87 0 0.0 0.0 0.00 0.00 0.00 71 1009.0
20260503190750 87 0 0.0 0.0 0.00 0.00 0.00 70 1009.0
20260503190426 87 0 0.0 0.0 0.00 0.00 0.00 70 1009.0
20260503185904 88 0 0.0 0.0 0.00 0.00 0.00 69 1009.0
20260503185342 88 0 0.0 0.0 0.00 0.00 0.00 68 1009.0
20260503184820 88 0 0.0 0.0 0.00 0.00 0.00 68 1009.0
20260503184258 88 0 0.0 0.0 0.00 0.00 0.00 69 1009.0
20260503183731 89 0 0.0 0.0 0.00 0.00 0.00 69 1009.0
20260503183209 88 0 0.0 0.0 0.00 0.00 0.00 70 1010.0
20260503182647 88 0 0.0 0.0 0.00 0.00 0.00 69 1010.0
20260503182125 88 0 0.0 0.0 0.00 0.00 0.00 69 1010.0
20260503181603 89 0 0.0 0.0 0.00 0.00 0.00 69 1010.0
20260503181041 89 0 0.0 0.0 0.00 0.00 0.00 69 1010.0
20260503180802 88 0 0.0 0.0 0.00 0.00 0.00 69 1010.0